DW4326 Weather Reports


time (UTC)temp
C
wind
direction
speed
KPH
gust
KPH
rain 1hr
cm
rain 24hr
cm
rain mn
cm
humidity
%
barometer
mb
20260507120006 5 5 6.4 12.9 0.00 1.60 0.03 94 1007.3
20260507114507 5 5 1.6 8.0 0.03 1.60 0.03 98 1007.1
20260507113005 5 310 0.0 1.6 0.03 1.60 0.03 98 1007.0
20260507112231 5 16 0.0 0.0 0.03 1.60 0.03 98 1007.0
20260507110001 4 16 0.0 0.0 0.03 1.60 0.03 98 1007.1
20260507104500 4 16 0.0 0.0 0.00 1.57 0.00 98 1007.2
20260507102959 4 16 0.0 0.0 0.00 1.57 0.00 98 1007.0
20260507101500 3 16 0.0 0.0 0.00 1.57 0.00 98 1006.9
20260507100000 3 16 0.0 0.0 0.00 1.57 0.00 98 1006.6
20260507094500 3 16 0.0 0.0 0.00 1.57 0.00 97 1006.7
20260507093000 3 16 0.0 0.0 0.00 1.57 0.00 97 1006.9
20260507091459 3 16 0.0 0.0 0.00 1.57 0.00 97 1006.9
20260507090000 3 16 0.0 0.0 0.00 1.57 0.00 97 1007.1
20260507084459 4 16 0.0 0.0 0.00 1.57 0.00 97 1007.2
20260507083001 4 16 0.0 0.0 0.00 1.57 0.00 97 1007.0
20260507081453 4 16 0.0 0.0 0.00 1.57 0.00 97 1007.2
20260507075953 4 16 0.0 0.0 0.00 1.57 0.00 98 1007.3
20260507074446 4 16 0.0 0.0 0.00 1.57 0.00 97 1007.0
20260507072944 5 16 0.0 0.0 0.00 1.57 0.00 97 1006.9
20260507071442 5 16 0.0 0.0 0.00 1.57 0.00 97 1006.6
20260507065939 5 16 0.0 0.0 0.00 1.57 0.00 97 1006.6
20260507064439 5 16 0.0 0.0 0.00 1.57 0.00 97 1006.7
20260507062938 5 16 0.0 0.0 0.00 1.57 0.00 97 1006.5
20260507062208 5 16 0.0 0.0 0.00 1.57 0.00 97 1006.5
20260507055936 5 16 0.0 0.0 0.00 1.57 0.00 97 1006.9
20260507054436 5 16 0.0 0.0 0.00 1.57 0.00 96 1007.3
20260507052929 5 16 0.0 0.0 0.00 1.57 0.00 96 1007.0
20260507051431 5 16 0.0 0.0 0.00 1.60 0.00 96 1007.1
20260507045923 5 16 0.0 0.0 0.00 1.60 0.00 96 1007.1
20260507044424 6 16 0.0 0.0 0.00 1.60 0.00 96 1007.0
20260507042922 6 16 0.0 0.0 0.00 1.60 0.00 96 1007.0
20260507041419 6 16 0.0 0.0 0.00 1.60 0.00 96 1007.0
20260507035918 6 16 0.0 0.0 0.00 1.60 1.60 96 1006.8
20260507034417 7 16 0.0 0.0 0.00 1.63 1.60 96 1006.9
20260507032918 7 16 0.0 0.0 0.00 1.63 1.60 96 1007.0
20260507031414 7 16 0.0 0.0 0.00 1.63 1.60 96 1007.0
20260507025915 7 16 0.0 0.0 0.00 1.63 1.60 96 1007.1
20260507024412 7 16 0.0 0.0 0.00 1.63 1.60 96 1007.1
20260507022912 7 16 0.0 0.0 0.03 1.63 1.60 96 1007.3
20260507022139 7 16 0.0 0.0 0.03 1.63 1.60 96 1007.5
20260507015907 7 16 0.0 0.0 0.03 1.63 1.60 96 1007.3
20260507014400 7 16 0.0 0.0 0.05 1.63 1.60 96 1007.2
20260507012902 7 16 0.0 6.4 0.03 1.60 1.57 95 1007.0
20260507011354 8 17 0.0 0.0 0.05 1.60 1.57 96 1007.1
20260507005855 8 17 0.0 0.0 0.05 1.60 1.57 95 1007.2
20260507004349 8 17 0.0 0.0 0.03 1.57 1.55 95 1006.6
20260507002849 8 15 0.0 6.4 0.03 1.57 1.55 95 1006.3
20260507002113 8 336 0.0 6.4 0.00 1.55 1.52 95 1006.2
20260507000617 8 20 1.6 6.4 0.00 1.55 1.52 95 1005.8
20260506234336 8 338 3.2 12.9 0.00 1.55 1.52 94 1005.3
20260506232836 9 347 1.6 14.5 0.00 1.55 1.52 94 1005.0
20260506232102 9 0 1.6 9.7 0.00 1.55 1.52 95 1005.1
20260506225831 9 331 0.0 0.0 0.00 1.55 1.52 96 1004.7
20260506224327 9 305 0.0 0.0 0.00 1.55 1.52 95 1004.7
20260506222829 9 306 0.0 3.2 0.00 1.55 1.52 94 1004.6
20260506221329 10 306 0.0 8.0 0.00 1.55 1.52 94 1004.4
20260506215827 10 20 3.2 8.0 0.00 1.55 1.52 94 1004.2
20260506214327 10 302 1.6 6.4 0.00 1.55 1.52 94 1004.0
20260506212822 11 351 3.2 8.0 0.05 1.55 1.52 94 1004.1
20260506211322 11 13 3.2 8.0 0.18 1.55 1.52 94 1004.0
20260506205821 11 11 3.2 12.9 0.23 1.55 1.52 94 1003.9
20260506204322 12 320 3.2 12.9 0.25 1.57 1.52 92 1003.7
20260506203554 13 5 6.4 16.1 0.28 1.60 1.47 91 1003.5
20260506202057 15 173 0.0 0.0 0.18 1.68 1.35 97 1003.1
20260506200552 15 173 0.0 0.0 0.15 1.63 1.30 97 1003.0
20260506194313 15 173 0.0 0.0 0.15 1.60 1.27 97 1003.0
20260506193545 15 173 0.0 0.0 0.08 1.52 1.19 97 1003.1
20260506191311 15 173 0.0 3.2 0.08 1.50 1.17 98 1003.2
20260506190542 15 173 1.6 8.0 0.15 1.47 1.14 98 1003.3
20260506184311 14 171 0.0 6.4 0.23 1.45 1.12 97 1003.4
20260506183538 14 171 0.0 3.2 0.33 1.45 1.12 97 1003.6
20260506181305 14 171 0.0 8.0 0.43 1.42 1.09 97 1003.8
20260506175805 14 148 0.0 0.0 0.46 1.32 1.02 97 1004.1
20260506174306 14 148 0.0 1.6 0.43 1.22 0.89 96 1004.6
20260506172759 14 146 0.0 3.2 0.53 1.12 0.79 96 1004.6
20260506171259 14 144 0.0 4.8 0.46 0.99 0.66 96 1005.0
20260506165754 14 202 0.0 4.8 0.36 0.86 0.53 96 1004.8
20260506165025 14 187 0.0 6.4 0.30 0.79 0.46 95 1005.0
20260506162747 14 173 0.0 1.6 0.13 0.58 0.25 95 1004.8
20260506161249 14 67 0.0 3.2 0.10 0.53 0.20 95 1005.2
20260506155741 14 163 0.0 4.8 0.08 0.51 0.18 95 1005.3
20260506154243 13 167 0.0 9.7 0.08 0.48 0.15 95 1005.8
20260506152737 13 153 0.0 1.6 0.08 0.46 0.13 96 1006.1
20260506152007 13 160 0.0 3.2 0.08 0.43 0.10 95 1006.3
20260506145730 13 156 0.0 0.0 0.08 0.43 0.10 94 1006.4
20260506144232 13 167 0.0 6.4 0.05 0.41 0.08 93 1006.6
20260506142722 13 128 0.0 4.8 0.03 0.38 0.05 92 1006.5
20260506141225 13 167 0.0 6.4 0.00 0.36 0.03 91 1006.6
20260506135724 13 192 0.0 4.8 0.00 0.36 0.03 92 1006.4
20260506134222 13 137 0.0 6.4 0.00 0.36 0.03 93 1006.3
20260506132723 13 153 0.0 3.2 0.00 0.36 0.03 95 1006.4
20260506131220 12 144 0.0 3.2 0.00 0.36 0.03 97 1006.7
20260506125722 12 216 0.0 0.0 0.00 0.36 0.03 98 1007.1
20260506124222 12 312 0.0 0.0 0.00 0.36 0.03 98 1006.5
20260506122720 12 312 0.0 0.0 0.00 0.36 0.03 98 1006.9